Wind_Speed
28 27 26 26 24 24 22 21 22 21 21 19 17 17 17 17 17 16 16 15 14 14 14 14 14 14 14 14 14 14 14 13 13 13 13 14 14 14 14 14 14 15 15 16
29 28 28 28 27 26 25 24 23 22 21 19 19 19 19 19 19 18 18 18 17 17 17 17 16 17 17 17 17 16 15 15 15 15 15 15 15 16 16 16 16 17 17 18
30 30 30 29 27 27 27 25 24 23 21 20 21 20 20 21 21 21 20 20 20 20 19 19 19 19 19 19 19 18 17 16 17 17 17 17 17 17 17 18 18 18 19 19
31 31 32 29 27 27 26 26 26 25 24 23 22 22 23 24 23 22 22 22 22 22 22 21 20 21 21 21 21 20 19 19 19 19 19 19 18 19 19 19 20 20 20 20
33 32 31 29 28 28 28 28 27 27 26 25 24 24 25 25 24 24 24 24 24 23 23 22 22 22 23 23 22 21 21 20 20 20 20 20 20 21 21 21 21 22 22 22
34 34 33 30 30 30 30 31 29 29 28 28 27 26 25 26 26 26 26 26 25 24 24 24 23 23 24 24 23 22 22 22 22 21 21 22 23 23 24 24 24 24 24 25
34 35 34 32 31 31 32 33 31 31 30 29 28 27 27 28 29 28 29 28 27 26 26 26 25 25 25 25 24 23 23 23 23 23 23 24 25 26 26 26 26 26 26 26
34 35 34 33 33 33 33 33 33 32 31 30 29 28 28 28 29 30 30 29 28 28 28 27 26 26 26 26 25 25 25 25 25 25 26 26 27 27 27 28 27 27 28 28
35 34 32 33 34 34 34 34 34 33 32 31 30 29 27 28 30 31 31 31 31 30 29 28 28 28 27 26 27 27 27 27 27 28 28 28 28 28 28 29 29 29 29 29
32 33 33 33 33 34 34 34 35 35 34 32 31 30 30 31 31 32 32 31 31 31 31 30 29 29 28 28 28 28 28 28 29 29 29 29 29 30 30 30 30 30 31 31
33 33 34 34 34 34 34 34 35 36 36 35 35 34 34 33 33 33 32 32 32 32 31 31 31 30 30 30 29 29 30 30 30 30 29 30 31 30 30 30 31 31 32 31
33 33 33 33 33 34 35 35 35 36 35 35 35 35 34 33 34 34 34 33 33 33 32 31 30 30 31 31 31 31 31 31 31 32 32 32 32 31 31 31 32 32 32 33
33 33 33 33 33 34 35 36 36 34 35 35 35 35 35 35 35 35 35 34 34 33 33 31 31 31 31 31 31 31 32 32 32 32 33 33 33 33 33 33 33 33 33 33
34 34 35 35 34 35 36 36 35 35 36 36 36 35 35 36 35 35 35 34 34 33 32 32 32 33 33 33 33 33 33 34 34 34 34 35 35 34 34 33 34 34 34 35
35 35 36 36 36 37 37 36 36 36 36 37 37 37 36 36 35 35 35 34 34 33 32 32 33 33 34 34 34 34 34 34 34 34 34 35 35 34 34 35 35 35 35 35
36 37 37 37 36 35 35 36 36 36 37 37 38 37 37 37 36 36 35 34 34 33 33 33 33 34 35 35 35 34 34 34 34 34 34 35 35 34 35 35 35 35 35 35
36 36 36 36 36 35 35 35 36 36 36 37 38 38 38 37 36 36 36 36 35 34 34 34 34 35 35 35 35 35 35 34 33 33 33 33 33 33 34 35 35 35 36 37
33 34 34 34 35 35 35 35 35 35 35 36 36 37 37 36 36 36 36 35 35 35 35 36 36 36 36 35 35 35 34 34 33 33 33 33 33 33 34 35 36 36 37 38
31 31 31 31 31 33 34 34 34 34 34 35 36 36 36 36 35 35 35 35 35 34 34 35 36 36 35 35 34 33 33 33 33 33 33 32 33 33 34 34 35 35 35 35
28 29 30 30 31 31 32 32 33 35 35 35 35 36 36 36 35 35 35 35 33 33 34 35 35 34 34 33 32 32 32 32 33 33 32 33 34 34 35 35 35 34 34 35
25 26 28 29 29 29 29 30 30 31 32 33 33 34 35 36 35 35 34 33 32 31 32 33 33 33 33 32 32 31 31 31 31 32 33 34 34 35 35 35 34 34 35 35
23 24 26 27 27 27 27 28 29 29 30 31 32 32 33 33 33 33 33 31 30 30 32 31 31 31 32 32 32 31 31 31 32 33 34 34 35 35 35 35 34 35 36 37
21 22 23 23 24 25 25 25 26 27 28 28 29 29 30 30 29 29 29 29 30 30 31 31 31 30 31 31 30 30 31 32 33 33 34 35 35 35 35 35 35 36 37 38
19 19 20 21 22 23 23 24 24 25 26 27 27 27 28 27 26 27 28 28 28 29 29 29 28 28 29 28 29 29 30 31 32 33 34 34 34 35 34 35 35 36 36 37
18 17 17 18 20 21 22 22 22 23 23 24 24 25 26 26 26 26 26 26 26 27 27 27 27 27 27 28 28 29 30 30 31 31 32 33 33 33 33 34 35 36 36 37
17 18 18 18 18 19 20 21 21 22 22 23 24 24 24 24 24 24 24 24 25 24 24 25 26 26 27 27 28 28 28 29 30 31 31 32 32 32 33 34 35 35 36 37
16 16 17 18 18 18 19 20 20 21 21 22 22 22 23 23 23 23 23 23 23 24 25 26 26 27 27 28 28 28 28 29 30 30 30 31 32 33 33 33 34 35 35 35
Wind_Direction
227 226 228 230 232 233 236 240 243 250 257 262 265 269 272 276 283 288 287 287 288 288 292 294 295 292 289 288 289 288 287 288 290 291 291 292 292 291 290 290 291 292 291 291
231 230 231 233 233 235 237 241 244 249 253 259 264 265 270 275 279 280 284 287 290 291 291 290 290 289 288 286 285 284 285 285 284 285 285 288 289 289 289 290 290 290 290 289
234 233 234 234 234 234 238 240 245 248 252 257 261 265 270 273 276 277 280 284 289 292 289 287 286 286 285 285 284 284 282 281 282 283 284 285 286 287 287 287 288 289 290 292
237 235 236 236 236 235 237 239 244 249 251 255 262 267 269 272 275 279 282 285 286 287 287 285 283 284 282 281 282 282 280 279 279 282 282 283 284 287 286 285 287 288 289 290
240 238 239 236 235 236 238 239 243 248 251 255 259 265 267 269 272 277 280 281 284 284 284 281 280 281 281 280 279 279 278 278 278 278 280 282 283 286 287 286 286 285 287 288
241 240 239 237 238 239 240 241 242 246 251 255 258 260 262 265 269 274 276 278 280 281 281 281 281 280 279 279 278 278 277 278 277 276 278 280 282 283 284 284 283 284 287 289
241 241 241 239 240 241 243 243 244 246 250 253 255 258 262 263 266 271 275 277 279 279 279 280 279 278 279 279 278 278 278 278 280 280 280 280 282 282 282 282 283 285 287 288
241 243 243 242 243 243 244 246 248 249 249 250 253 256 260 263 266 271 274 277 279 280 280 280 278 277 278 276 275 275 277 279 280 281 281 281 282 283 282 282 284 286 287 288
241 244 244 243 245 244 244 245 247 250 250 251 253 254 259 263 267 270 272 274 277 278 278 278 277 277 275 273 273 275 277 278 280 281 281 282 283 282 283 284 285 285 285 286
243 242 243 244 245 247 247 249 251 252 252 251 253 254 258 263 267 269 270 272 277 277 276 277 277 275 274 273 272 273 276 278 279 279 280 282 282 282 283 284 284 284 285 285
244 245 245 246 248 248 249 252 253 252 252 252 254 256 258 262 265 268 271 272 275 277 277 276 276 275 273 274 274 273 275 277 279 280 281 281 281 281 282 282 283 284 284 285
243 245 246 246 247 247 250 252 253 252 253 254 256 258 260 263 265 268 270 272 274 276 276 276 275 273 273 274 273 273 275 277 278 280 281 281 281 281 282 282 283 284 284 284
243 244 245 246 248 250 252 252 252 253 253 255 257 259 262 264 265 267 269 271 274 274 275 274 272 272 272 273 273 273 275 276 277 279 281 281 281 281 282 282 283 283 284 285
242 244 244 246 249 252 253 254 253 253 254 256 259 262 264 265 265 266 268 270 271 271 272 271 272 272 272 272 273 275 276 277 278 279 281 281 281 281 280 281 283 284 284 285
241 243 245 248 250 251 252 254 256 258 259 260 262 264 266 267 267 266 266 266 268 269 271 272 273 273 273 274 275 275 277 277 278 279 280 280 280 280 281 282 282 283 284 284
242 244 247 247 251 253 254 254 256 256 258 260 263 265 267 268 267 267 266 266 267 269 270 272 274 274 275 276 275 275 276 277 277 278 279 279 280 281 281 282 282 284 285 285
243 245 248 249 251 253 255 256 257 257 259 262 264 265 266 267 268 268 269 268 267 268 269 271 273 273 274 276 276 277 277 277 278 280 279 281 282 282 282 282 284 285 286 288
245 246 247 248 250 252 255 257 259 259 259 260 262 263 265 267 268 269 271 269 268 268 269 270 272 273 274 276 278 278 279 281 281 279 280 282 285 286 286 286 286 286 287 288
246 248 248 251 252 252 254 256 258 258 260 261 262 263 265 267 268 269 269 268 267 268 270 272 273 274 275 276 278 280 280 280 281 281 281 285 287 288 289 288 288 288 288 289
248 249 251 253 254 254 255 256 258 259 260 261 263 264 265 268 270 270 271 270 270 271 271 271 273 273 274 276 278 280 280 279 279 280 283 285 287 288 289 289 288 288 288 290
250 251 252 253 254 256 257 257 257 258 259 261 264 266 267 268 270 271 272 270 270 272 272 272 273 274 275 277 279 280 280 279 280 282 283 285 287 288 288 287 288 289 289 291
252 253 254 255 256 257 258 259 257 258 260 262 264 267 269 269 270 270 268 269 271 272 272 273 275 275 278 279 279 279 279 280 281 282 283 284 286 287 287 286 288 289 290 292
253 254 257 258 259 260 260 259 258 260 262 264 265 266 268 268 269 268 267 268 270 271 273 274 275 277 280 280 280 280 281 281 281 282 283 284 285 286 287 287 289 290 292 292
255 258 259 260 260 260 260 261 262 264 265 266 267 268 268 268 269 269 269 269 270 271 273 274 274 278 280 280 281 281 282 282 283 283 285 286 286 287 288 289 290 292 293 294
258 259 260 261 262 262 261 263 266 267 268 268 268 269 269 268 270 271 272 273 273 273 274 276 278 279 281 282 283 283 285 285 286 287 288 288 288 289 289 291 292 293 294 296
261 261 262 265 267 266 265 265 267 269 271 271 270 270 269 270 269 269 273 275 277 277 279 280 280 280 281 283 284 286 287 287 288 288 289 288 289 290 291 292 293 294 296 297
266 266 267 270 271 270 269 269 271 274 275 274 272 273 272 272 272 271 273 275 276 276 277 279 280 282 284 286 287 288 288 290 290 290 289 291 293 294 294 294 295 295 297 298
Height
5886 5890 5892 5894 5896 5898 5899 5900 5901 5903 5903 5904 5905 5906 5906 5907 5906 5906 5906 5906 5905 5906 5905 5904 5904 5903 5902 5902 5901 5900 5899 5898 5897 5896 5895 5894 5892 5891 5890 5889 5888 5887 5885 5884
5880 5883 5886 5888 5890 5893 5894 5895 5896 5897 5899 5899 5900 5900 5901 5902 5902 5902 5902 5902 5901 5901 5901 5900 5899 5899 5898 5897 5897 5896 5895 5894 5893 5892 5891 5890 5888 5887 5886 5885 5883 5882 5880 5878
5874 5877 5879 5882 5885 5887 5888 5889 5891 5892 5894 5894 5894 5895 5896 5897 5897 5897 5897 5897 5896 5895 5895 5895 5895 5894 5893 5893 5892 5891 5890 5889 5888 5887 5886 5885 5883 5882 5881 5880 5878 5876 5874 5872
5868 5871 5872 5878 5879 5880 5881 5883 5885 5886 5887 5888 5889 5890 5890 5891 5891 5891 5891 5890 5889 5889 5890 5889 5889 5888 5887 5887 5886 5885 5884 5884 5883 5882 5881 5879 5878 5877 5875 5874 5872 5871 5869 5867
5860 5862 5865 5870 5872 5873 5875 5876 5878 5879 5881 5882 5883 5884 5884 5884 5884 5885 5885 5884 5884 5883 5883 5883 5883 5882 5881 5880 5879 5879 5879 5878 5877 5876 5875 5873 5872 5871 5869 5868 5866 5864 5863 5861
5852 5855 5857 5863 5865 5866 5869 5869 5871 5872 5874 5876 5877 5878 5879 5879 5879 5879 5879 5879 5878 5878 5878 5877 5877 5875 5875 5874 5873 5872 5872 5871 5870 5869 5868 5867 5865 5864 5862 5861 5859 5857 5856 5854
5844 5846 5850 5855 5857 5859 5861 5863 5864 5866 5867 5869 5870 5871 5872 5872 5872 5872 5872 5872 5872 5871 5871 5870 5869 5868 5867 5867 5866 5865 5865 5864 5863 5862 5861 5860 5858 5856 5855 5853 5851 5850 5848 5847
5836 5838 5844 5846 5848 5851 5853 5855 5857 5858 5860 5861 5862 5862 5863 5864 5865 5865 5864 5864 5864 5864 5863 5862 5861 5861 5859 5859 5859 5858 5857 5856 5856 5854 5853 5852 5851 5849 5847 5845 5843 5842 5840 5838
5828 5832 5834 5836 5838 5841 5843 5846 5848 5850 5851 5852 5853 5854 5856 5857 5857 5857 5857 5857 5856 5856 5855 5854 5853 5852 5851 5851 5850 5850 5849 5848 5847 5846 5845 5844 5842 5840 5839 5837 5835 5834 5832 5830
5819 5821 5824 5827 5829 5831 5834 5836 5839 5841 5842 5844 5844 5846 5847 5849 5849 5849 5849 5849 5849 5848 5847 5846 5844 5843 5843 5843 5842 5842 5841 5840 5839 5837 5836 5835 5833 5832 5830 5829 5827 5825 5823 5821
5810 5813 5815 5818 5821 5823 5825 5827 5829 5831 5833 5834 5836 5838 5839 5839 5840 5840 5840 5840 5840 5839 5838 5837 5836 5836 5835 5834 5834 5833 5832 5831 5830 5828 5827 5826 5824 5823 5821 5820 5818 5816 5814 5812
5802 5805 5807 5810 5811 5814 5816 5818 5820 5822 5824 5826 5827 5828 5829 5830 5831 5831 5831 5831 5831 5830 5829 5828 5828 5827 5826 5826 5825 5824 5823 5823 5821 5820 5818 5817 5815 5813 5812 5810 5808 5806 5804 5802
5793 5795 5798 5801 5803 5804 5806 5809 5811 5812 5814 5816 5817 5819 5820 5821 5821 5822 5822 5822 5821 5820 5819 5818 5818 5818 5817 5817 5816 5815 5814 5813 5812 5810 5808 5807 5805 5804 5802 5800 5798 5796 5794 5792
5785 5787 5790 5792 5794 5796 5798 5800 5801 5803 5805 5806 5808 5809 5810 5811 5812 5812 5812 5812 5811 5811 5810 5810 5809 5808 5808 5807 5806 5805 5804 5803 5802 5800 5798 5797 5795 5793 5791 5790 5788 5785 5783 5781
5776 5778 5781 5783 5785 5787 5789 5790 5792 5794 5795 5796 5798 5799 5800 5801 5802 5803 5803 5802 5802 5801 5801 5800 5800 5799 5798 5797 5796 5795 5794 5793 5791 5789 5788 5786 5784 5783 5781 5779 5777 5775 5772 5770
5767 5769 5772 5774 5776 5778 5779 5780 5782 5784 5785 5786 5788 5789 5789 5790 5792 5792 5792 5792 5792 5792 5792 5791 5790 5789 5788 5787 5786 5785 5784 5782 5780 5779 5777 5775 5773 5772 5770 5768 5766 5764 5762 5760
5758 5760 5763 5765 5767 5768 5769 5770 5772 5773 5774 5776 5777 5778 5779 5781 5781 5782 5782 5781 5781 5781 5781 5780 5779 5779 5778 5777 5776 5775 5774 5772 5770 5768 5767 5765 5763 5761 5759 5757 5755 5753 5751 5749
5750 5752 5754 5756 5758 5759 5760 5762 5763 5764 5765 5766 5767 5768 5769 5770 5771 5771 5770 5769 5769 5770 5770 5769 5768 5768 5767 5767 5766 5764 5763 5762 5760 5759 5757 5756 5754 5752 5750 5747 5745 5743 5740 5738
5741 5743 5745 5747 5748 5750 5751 5752 5754 5755 5756 5757 5758 5759 5759 5760 5760 5760 5760 5759 5759 5759 5759 5758 5757 5757 5756 5756 5755 5753 5752 5751 5750 5748 5747 5745 5743 5741 5739 5737 5734 5732 5729 5727
5734 5735 5737 5738 5740 5741 5742 5743 5744 5745 5746 5747 5748 5749 5750 5750 5750 5750 5749 5749 5749 5748 5748 5747 5746 5746 5746 5745 5744 5743 5742 5741 5739 5738 5736 5735 5733 5732 5729 5727 5724 5721 5719 5716
5726 5727 5729 5730 5732 5733 5734 5735 5735 5736 5737 5738 5739 5739 5740 5740 5740 5739 5739 5739 5739 5738 5737 5737 5736 5736 5736 5734 5733 5732 5731 5730 5729 5728 5726 5725 5723 5721 5718 5716 5714 5711 5708 5705
5719 5720 5721 5723 5724 5725 5726 5726 5727 5728 5729 5729 5730 5730 5729 5729 5729 5729 5729 5729 5728 5728 5727 5726 5726 5726 5725 5724 5723 5722 5721 5720 5719 5717 5716 5714 5712 5710 5708 5705 5703 5700 5697 5693
5712 5713 5714 5715 5716 5717 5718 5718 5718 5719 5720 5720 5720 5720 5720 5719 5719 5719 5719 5719 5718 5718 5717 5716 5716 5715 5714 5713 5713 5712 5711 5709 5708 5707 5705 5703 5701 5699 5697 5694 5692 5689 5686 5682
5706 5707 5708 5708 5709 5709 5710 5710 5711 5711 5711 5711 5711 5711 5710 5710 5710 5710 5710 5710 5709 5709 5708 5707 5706 5706 5705 5704 5703 5702 5701 5699 5698 5696 5694 5692 5690 5688 5686 5684 5681 5678 5674 5671
5701 5701 5702 5702 5702 5703 5703 5703 5703 5703 5703 5702 5702 5702 5702 5702 5702 5702 5701 5701 5701 5700 5700 5699 5698 5697 5697 5696 5694 5693 5691 5689 5687 5685 5683 5682 5680 5678 5675 5672 5669 5666 5663 5660
5695 5696 5696 5696 5696 5696 5696 5696 5696 5695 5695 5695 5695 5694 5694 5694 5694 5693 5693 5693 5693 5692 5691 5690 5690 5689 5688 5687 5685 5684 5682 5680 5678 5676 5673 5671 5669 5667 5664 5662 5659 5655 5652 5649
5689 5690 5690 5690 5690 5690 5689 5689 5689 5688 5688 5687 5687 5686 5686 5686 5686 5686 5686 5685 5685 5684 5683 5683 5682 5680 5679 5678 5676 5674 5672 5670 5668 5666 5664 5661 5659 5656 5654 5651 5648 5645 5641 5638